CAPE
0 1 3 4 3 3 4 4 4 4 3 2 1 0 1 1 0 1 2 2 1 0 0 0 0 0 0 0 0 0 0 0 0 0 0 0 0 0 0 0 0 0 0 0 0 0 0
0 2 4 2 2 2 2 2 2 2 3 2 1 0 0 0 0 0 1 0 0 0 0 0 0 0 0 0 0 0 0 0 0 0 0 0 0 0 0 0 0 0 0 0 0 0 0
0 0 2 2 2 1 2 2 1 1 1 1 0 0 0 0 0 0 0 0 0 0 0 0 0 0 0 0 0 0 0 0 0 0 0 0 0 0 0 0 0 0 0 0 0 0 0
0 0 0 0 0 1 2 1 2 2 1 0 0 0 0 0 0 0 0 0 0 0 0 0 0 0 0 0 0 0 0 0 0 0 0 0 0 0 0 0 0 0 0 0 0 0 0
0 0 0 0 0 0 0 1 1 1 1 0 0 0 0 0 0 0 0 0 0 0 0 0 0 0 0 0 0 0 0 0 0 0 0 0 0 0 0 0 0 0 0 0 0 0 0
0 0 0 0 0 0 0 1 1 0 0 0 0 0 0 0 0 0 0 0 0 0 0 0 0 0 0 0 0 0 0 0 0 0 0 0 0 0 0 0 0 0 0 0 0 0 0
0 0 0 0 0 1 0 1 2 1 0 0 0 0 0 0 0 0 0 0 0 0 0 0 0 0 0 0 0 0 0 0 0 0 0 0 0 0 0 0 0 0 0 0 0 0 0
0 0 0 0 0 1 1 1 2 1 0 0 0 0 0 0 0 0 0 0 0 0 0 0 0 0 0 0 0 0 0 0 0 0 0 0 0 0 0 0 0 0 0 0 0 0 0
0 0 0 0 0 0 1 1 0 0 0 0 0 0 0 0 0 0 0 0 0 0 0 0 0 0 0 0 0 0 0 0 0 0 0 0 0 0 0 0 0 0 0 0 0 0 0
0 0 0 0 0 0 0 0 0 0 0 0 0 0 0 0 0 0 0 0 0 0 0 0 0 0 0 0 0 0 0 0 0 0 0 0 0 0 0 0 0 0 0 0 0 0 0
0 0 0 0 0 0 0 0 0 0 0 0 0 0 0 0 0 0 0 0 0 0 0 0 0 0 0 0 0 0 0 0 0 0 0 0 0 0 0 0 0 0 0 0 0 0 0
0 0 0 0 0 0 0 0 0 0 0 0 0 0 0 0 0 0 0 0 0 0 0 0 0 0 0 0 0 0 0 0 0 0 0 0 0 0 0 0 0 0 0 0 0 0 0
0 0 0 0 0 0 0 0 0 0 0 0 0 0 0 0 0 0 0 0 0 0 0 0 0 0 0 0 0 0 0 0 0 0 0 0 0 0 0 0 0 0 0 0 0 0 0
0 0 0 0 0 0 0 0 0 0 0 0 0 0 0 0 0 0 0 0 0 0 0 0 0 0 0 0 0 0 0 0 0 0 0 0 0 0 0 0 0 0 0 0 0 0 0
0 0 0 0 0 0 0 0 0 0 0 0 0 0 0 0 0 0 0 0 0 0 0 0 0 0 0 0 0 0 0 0 0 0 0 0 0 0 0 0 0 0 0 0 0 0 0
0 0 0 0 0 0 0 0 0 0 0 0 0 0 0 0 0 0 0 0 0 0 0 0 0 0 0 0 0 0 0 0 0 0 0 0 0 0 0 0 0 0 0 0 0 0 0
0 0 0 0 0 0 0 0 0 0 0 0 0 0 0 0 0 0 0 0 0 0 0 0 0 0 0 0 0 0 0 0 0 0 0 0 0 0 0 0 0 0 0 0 0 0 0
0 0 0 0 0 0 0 0 0 0 0 0 0 0 0 0 0 0 0 0 0 0 0 0 0 0 0 0 0 0 0 0 0 0 0 0 0 0 0 0 0 0 0 0 0 0 0
2 2 0 0 0 0 0 0 0 0 0 0 0 0 0 0 0 0 0 0 0 0 0 0 0 0 0 0 0 0 0 0 0 0 0 0 0 0 0 0 0 0 0 0 0 0 0
4 3 0 0 0 0 0 0 0 0 0 0 0 0 0 0 0 0 0 0 0 0 0 0 0 0 0 0 0 0 0 0 0 0 0 0 0 0 0 0 0 0 0 0 0 0 0
6 5 2 0 0 0 0 0 0 0 0 0 0 0 0 0 0 0 0 0 0 0 0 0 0 0 0 0 0 0 0 0 0 0 0 0 0 0 0 0 0 0 0 0 0 0 0
10 7 3 1 0 0 0 0 0 0 0 0 0 0 0 0 0 0 0 0 0 0 0 0 0 0 0 0 0 0 0 0 0 0 0 0 0 0 0 0 0 0 0 0 0 0 0
12 10 5 4 0 0 0 0 0 0 0 0 0 0 0 0 0 0 0 0 0 0 0 0 0 0 0 0 0 0 0 0 0 0 0 0 0 0 0 0 0 0 0 0 0 0 0
15 10 7 5 1 0 0 0 0 0 0 0 0 0 0 0 0 0 0 0 0 0 0 0 0 0 0 0 0 0 0 0 0 0 0 0 0 0 0 0 0 0 0 0 0 0 0
15 10 8 6 1 0 0 0 0 0 0 0 0 0 0 0 0 0 0 0 0 0 0 0 0 0 0 0 0 0 0 0 0 0 0 0 0 0 0 0 0 0 0 0 0 0 0
13 9 9 4 1 0 0 0 0 0 0 0 0 0 0 0 0 0 0 0 0 0 0 0 0 0 0 0 0 0 0 0 0 0 0 0 0 0 0 0 0 0 0 0 0 0 0
16 12 12 8 7 0 0 0 0 0 0 0 0 0 0 0 0 0 0 0 0 0 0 0 0 0 0 0 0 0 0 0 0 0 0 0 0 0 0 2 0 0 0 0 0 0 0
17 13 10 19 7 0 0 0 0 0 0 0 0 0 0 0 0 0 0 0 0 0 0 0 0 0 0 0 0 0 0 0 0 0 0 0 0 0 0 0 0 0 0 0 0 0 0
15 11 11 15 0 0 0 0 0 0 0 0 0 0 0 0 0 0 0 0 0 0 0 0 0 0 0 0 0 0 0 0 0 0 0 0 0 0 0 0 0 0 0 0 0 0 0
CIN
-0 -0 -0 -0 -0 -0 -0 -0 -0 -0 -0 -0 -0 -0 -0 -0 -0 -0 -0 -0 -0 -0 -0 -0 -0 -0 -0 -0 -0 -0 -0 -0 -0 -0 -0 -0 -0 -0 -0 -0 -0 -0 -0 -0 -0 -0 -0
-0 -0 -0 -0 -0 -0 -0 -0 -0 -0 -0 -0 -0 -0 -0 -0 -0 -0 -0 -0 -0 -0 -0 -0 -0 -0 -0 -0 -0 -0 -0 -0 -0 -0 -0 -0 -0 -0 -0 -0 -0 -0 -0 -0 -0 -0 -0
-0 -0 -0 -0 -0 -0 -0 -0 -0 -0 -0 -0 -0 -0 -0 -0 -0 -0 -0 -0 -0 -0 -0 -0 -0 -0 -0 -0 -0 -0 -0 -0 -0 -0 -0 -0 -0 -0 -0 -0 -0 -0 -0 -0 -0 -0 -0
-0 -0 -0 -0 -0 -0 -0 -0 -0 -0 -0 -0 -0 -0 -0 -0 -0 -0 -0 -0 -0 -0 -0 -0 -0 -0 -0 -0 -0 -0 -0 -0 -0 -0 -0 -0 -0 -0 -0 -0 -0 -0 -0 -0 -0 -0 -0
-0 -0 -0 -0 -0 -0 -0 -0 -0 -0 -0 -0 -0 -0 -0 -0 -0 -0 -0 -0 -0 -0 -0 -0 -0 -0 -0 -0 -0 -0 -0 -0 -0 -0 -0 -0 -0 -0 -0 -0 -0 -0 -0 -0 -0 -0 -0
-0 -0 -0 -0 -0 -0 -0 -0 -0 -0 -0 -0 -0 -0 -0 -0 -0 -0 -0 -0 -0 -0 -0 -0 -0 -0 -0 -0 -0 -0 -0 -0 -0 -0 -0 -0 -0 -0 -0 -0 -0 -0 -0 -0 -0 -0 -0
-0 -0 -0 -0 -0 -0 -0 -0 -0 -0 -0 -0 -0 -0 -0 -0 -0 -0 -0 -0 -0 -0 -0 -0 -0 -0 -0 -0 -0 -0 -0 -0 -0 -0 -0 -0 -0 -0 -0 -0 -0 -0 -0 -0 -0 -0 -0
-0 -0 -0 -0 -0 -0 -0 -0 -0 -0 -0 -0 -0 -0 -0 -0 -0 -0 -0 -0 -0 -0 -0 -0 -0 -0 -0 -0 -0 -0 -0 -0 -0 -0 -0 -0 -0 -0 -0 -0 -0 -0 -0 -0 -0 -0 -0
-0 -0 -0 -0 -0 -0 -0 -0 -0 -0 -0 -0 -0 -0 -0 -0 -0 -0 -0 -0 -0 -0 -0 -0 -0 -0 -0 -0 -0 -0 -0 -0 -0 -0 -0 -0 -0 -0 -0 -0 -0 -0 -0 -0 -0 -0 -0
-0 -0 -0 -0 -0 -0 -0 -0 -0 -0 -0 -0 -0 -0 -0 -0 -0 -0 -0 -0 -0 -0 -0 -0 -0 -0 -0 -0 -0 -0 -0 -0 -0 -0 -0 -0 -0 -0 -0 -0 -0 -0 -0 -0 -0 -0 -0
-0 -0 -0 -0 -0 -0 -0 -0 -0 -0 -0 -0 -0 -0 -0 -0 -0 -0 -0 -0 -0 -0 -0 -0 -0 -0 -0 -0 -0 -0 -0 -0 -0 -0 -0 -0 -0 -0 -0 -0 -0 -0 -0 -0 -0 -0 -0
-0 -0 -0 -0 -0 -0 -0 -0 -0 -0 -0 -0 -0 -0 -0 -0 -0 -0 -0 -0 -0 -0 -0 -0 -0 -0 -0 -0 -0 -0 -0 -0 -0 -0 -0 -0 -0 -0 -0 -0 -0 -0 -0 -0 -0 -0 -0
-0 -0 -0 -0 -0 -0 -0 -0 -0 -0 -0 -0 -0 -0 -0 -0 -0 -0 -0 -0 -0 -0 -0 -0 -0 -0 -0 -0 -0 -0 -0 -0 -0 -0 -0 -0 -0 -0 -0 -0 -0 -0 -0 -0 -0 -0 -0
-0 -0 -0 -0 -0 -0 -0 -0 -0 -0 -0 -0 -0 -0 -0 -0 -0 -0 -0 -0 -0 -0 -0 -0 -0 -0 -0 -0 -0 -0 -0 -0 -0 -0 -0 -0 -0 -0 -0 -0 -0 -0 -0 -0 -0 -0 -0
-0 -0 -0 -0 -0 -0 -0 -0 -0 -0 -0 -0 -0 -0 -0 -0 -0 -0 -0 -0 -0 -0 -0 -0 -0 -0 -0 -0 -0 -0 -0 -0 -0 -0 -0 -0 -0 -0 -0 -0 -0 -0 -0 -0 -0 -0 -0
-0 -0 -0 -0 -0 -0 -0 -0 -0 -0 -0 -0 -0 -0 -0 -0 -0 -0 -0 -0 -0 -0 -0 -0 -0 -0 -0 -0 -0 -0 -0 -0 -0 -0 -0 -0 -0 -0 -0 -0 -0 -0 -0 -0 -0 -0 -0
-0 -0 -0 -0 -0 -0 -0 -0 -0 -0 -0 -0 -0 -0 -0 -0 -0 -0 -0 -0 -0 -0 -0 -0 -0 -0 -0 -0 -0 -0 -0 -0 -0 -0 -0 -0 -0 -0 -0 -0 -0 -0 -0 -0 -0 -0 -0
-0 -0 -0 -0 -0 -0 -0 -0 -0 -0 -0 -0 -0 -0 -0 -0 -0 -0 -0 -0 -0 -0 -0 -0 -0 -0 -0 -0 -0 -0 -0 -0 -0 -0 -0 -0 -0 -0 -0 -0 -0 -0 -0 -0 -0 -0 -0
-0 -0 -0 -0 -0 -0 -0 -0 -0 -0 -0 -0 -0 -0 -0 -0 -0 -0 -0 -0 -0 -0 -0 -0 -0 -0 -0 -0 -0 -0 -0 -0 -0 -0 -0 -0 -0 -0 -0 -0 -0 -0 -0 -0 -0 -0 -0
-0 -0 -0 -0 -0 -0 -0 -0 -0 -0 -0 -0 -0 -0 -0 -0 -0 -0 -0 -0 -0 -0 -0 -0 -0 -0 -0 -0 -0 -0 -0 -0 -0 -0 -0 -0 -0 -0 -0 -0 -0 -0 -0 -0 -0 -0 -0
-0 -0 -0 -0 -0 -0 -0 -0 -0 -0 -0 -0 -0 -0 -0 -0 -0 -0 -0 -0 -0 -0 -0 -0 -0 -0 -0 -0 -0 -0 -0 -0 -0 -0 -0 -0 -0 -0 -0 -0 -0 -0 -0 -0 -0 -0 -0
-0 -0 -0 -0 -0 -0 -0 -0 -0 -0 -0 -0 -0 -0 -0 -0 -0 -0 -0 -0 -0 -0 -0 -0 -0 -0 -0 -0 -0 -0 -0 -0 -0 -0 -0 -0 -0 -0 -0 -0 -0 -0 -0 -0 -0 -0 -0
-0 -0 -0 -0 -0 -0 -0 -0 -0 -0 -0 -0 -0 -0 -0 -0 -0 -0 -0 -0 -0 -0 -0 -0 -0 -0 -0 -0 -0 -0 -0 -0 -0 -0 -0 -0 -0 -0 -0 -0 -0 -0 -0 -0 -0 -0 -0
-0 -0 -0 -0 -0 -0 -0 -0 -0 -0 -0 -0 -0 -0 -0 -0 -0 -0 -0 -0 -0 -0 -0 -0 -0 -0 -0 -0 -0 -0 -0 -0 -0 -0 -0 -0 -0 -0 -0 -0 -0 -0 -0 -0 -0 -0 -0
-0 -0 -0 -0 -0 -0 -0 -0 -0 -0 -0 -0 -0 -0 -0 -0 -0 -0 -0 -0 -0 -0 -0 -0 -0 -0 -0 -0 -0 -0 -0 -0 -0 -0 -0 -0 -0 -0 -0 -0 -0 -0 -0 -0 -0 -0 -0
-0 -0 -0 -0 -0 -0 -0 -0 -0 -0 -0 -0 -0 -0 -0 -0 -0 -0 -0 -0 -0 -0 -0 -0 -0 -0 -0 -0 -0 -0 -0 -0 -0 -0 -0 -0 -0 -0 -0 -0 -0 -0 -0 -0 -0 -0 -0
-0 -0 -0 -0 -0 -0 -0 -0 -0 -0 -0 -0 -0 -0 -0 -0 -0 -0 -0 -0 -0 -0 -0 -0 -0 -0 -0 -0 -0 -0 -0 -0 -0 -0 -0 -0 -0 -0 -0 -4 -2 -0 -0 -0 -0 -0 -0
-0 -0 -0 -0 -0 -0 -0 -0 -0 -0 -0 -0 -0 -0 -0 -0 -0 -0 -0 -0 -0 -0 -0 -0 -0 -0 -0 -0 -0 -0 -0 -0 -0 -0 -0 -0 -0 -0 -0 -0 -0 -0 -0 -0 -0 -0 -0
-0 -0 -0 -0 -0 -0 -0 -0 -0 -0 -0 -0 -0 -0 -0 -0 -0 -0 -0 -0 -0 -0 -0 -0 -0 -0 -0 -0 -0 -0 -0 -0 -0 -0 -0 -0 -0 -0 -0 -0 -0 -0 -0 -0 -0 -0 -0
Wind_Speed
7 7 8 9 9 11 12 13 14 14 15 14 15 15 15 16 15 15 14 14 14 12 11 9 7 6 2 4 1 3 7 8 4 5 4 3 4 3 0 3 2 1 3 5 4 3 3
7 7 8 8 9 11 11 12 13 14 15 15 16 15 15 15 15 15 15 14 13 11 10 9 7 6 0 2 3 5 5 4 5 4 4 5 2 1 2 2 0 3 4 7 7 4 2
6 7 8 9 10 11 11 12 13 13 14 15 16 16 15 15 15 15 14 14 12 9 8 8 7 3 6 2 3 6 4 1 2 2 2 2 2 2 2 3 4 3 6 7 2 3 3
5 6 6 8 9 10 11 12 13 14 14 14 15 16 16 16 16 14 13 11 9 6 6 5 6 2 3 3 3 3 5 1 2 2 2 1 2 1 1 2 5 5 4 5 4 5 1
4 5 6 7 9 10 11 12 13 14 15 15 16 15 15 16 16 16 14 11 5 4 4 4 1 2 1 3 2 4 3 2 4 2 2 1 2 2 4 4 5 6 3 2 7 2 3
2 4 5 7 9 11 12 13 13 13 14 15 16 16 16 17 16 15 15 7 4 5 1 1 1 4 1 1 2 3 3 2 1 3 3 3 5 3 4 4 3 2 2 3 4 2 2
2 3 6 8 10 11 12 13 13 14 15 15 15 16 16 16 16 15 7 3 6 5 9 3 2 2 1 2 1 3 2 4 1 2 2 1 4 3 6 6 5 3 4 6 5 4 4
3 1 4 7 9 11 12 13 14 14 15 15 16 16 16 16 16 14 3 6 3 2 2 2 1 2 1 1 2 6 5 2 1 1 2 5 1 3 3 1 1 2 3 6 7 2 4
5 2 1 5 8 10 11 12 13 14 15 15 16 16 16 16 12 5 5 3 2 1 4 2 1 1 1 2 2 5 4 1 2 2 3 3 3 2 1 1 1 3 4 3 4 7 1
6 3 1 3 6 8 10 12 13 14 14 15 15 15 16 18 6 1 3 3 1 1 5 2 1 0 1 1 1 1 2 1 3 1 3 4 3 0 2 1 2 3 2 1 2 4 3
7 5 2 2 5 7 8 10 12 13 14 15 15 16 16 7 1 3 1 4 1 3 5 1 2 1 1 2 2 1 1 2 2 1 4 6 2 1 2 3 2 7 2 2 2 4 2
10 7 4 2 5 7 9 10 11 12 13 13 13 13 13 5 3 0 2 2 3 9 6 1 1 1 1 0 0 2 5 8 2 1 1 5 5 1 3 1 3 4 3 3 4 4 2
11 9 6 3 3 7 9 11 12 13 13 13 12 11 5 0 1 2 2 3 7 6 0 2 2 1 1 1 0 3 5 7 3 5 5 6 1 2 1 3 3 6 5 5 6 3 6
13 10 7 4 4 6 7 9 11 12 14 14 12 7 3 2 0 2 3 6 2 3 3 0 1 0 3 3 1 3 4 2 4 3 2 2 5 3 4 1 0 1 4 5 6 4 5
15 12 9 5 4 6 8 9 10 12 13 13 10 2 2 1 1 3 6 4 7 4 1 1 2 1 2 1 2 5 2 3 1 3 3 2 5 4 2 2 2 1 2 2 1 3 3
15 13 10 7 5 5 9 10 10 11 11 10 2 2 2 1 3 4 5 5 3 1 1 1 5 3 3 3 2 4 6 1 3 1 1 2 5 1 5 2 5 1 1 2 1 4 7
17 15 12 8 5 4 8 10 10 12 10 4 3 3 2 2 4 6 4 6 2 1 1 3 4 2 2 4 3 3 2 2 2 1 2 1 2 5 2 5 1 4 1 3 1 4 4
19 15 12 9 5 3 7 9 11 11 9 3 3 2 2 2 4 2 3 1 1 1 5 0 2 1 4 4 2 4 5 1 1 1 3 1 3 4 6 4 3 3 3 2 4 3 1
20 17 13 10 6 3 5 7 10 9 4 2 3 2 3 4 3 2 1 2 3 1 2 1 1 1 1 3 3 3 3 1 3 3 4 1 1 4 2 3 2 5 2 3 1 2 6
24 20 14 10 7 4 5 5 8 8 2 3 3 1 4 4 1 7 5 4 3 2 1 1 1 1 1 3 2 4 3 3 2 3 5 2 2 6 6 1 1 4 3 4 5 2 5
24 21 17 11 7 3 3 5 7 6 4 3 2 4 3 3 3 4 4 6 4 4 1 1 1 3 3 4 3 5 4 3 1 3 3 4 4 2 3 6 5 6 6 7 7 9 7
25 22 18 15 7 2 3 5 5 3 8 3 5 4 3 1 1 5 2 6 8 3 5 3 3 3 2 3 2 3 5 4 5 2 4 2 1 1 3 8 6 8 8 6 7 7 3
26 23 20 16 12 7 5 5 4 5 6 3 1 2 5 2 2 4 3 3 4 8 1 4 2 4 2 2 2 2 2 3 5 7 5 5 3 1 4 2 5 7 2 2 0 3 1
27 24 21 17 12 8 5 4 2 6 8 3 3 4 4 2 3 2 3 3 5 2 5 2 5 4 2 2 1 1 1 2 2 4 4 5 5 3 4 2 2 2 2 3 3 1 3
28 25 21 17 12 9 5 2 4 3 11 4 2 4 4 4 3 4 5 5 6 5 4 3 3 2 1 2 2 1 2 3 2 5 7 5 4 1 2 3 3 1 3 2 4 4 2
29 26 22 17 14 8 7 4 4 6 10 5 2 1 4 8 0 1 5 3 4 3 2 2 2 1 4 2 1 3 4 4 3 1 1 4 3 4 2 2 5 5 1 4 4 5 3
28 25 21 17 14 10 4 4 3 7 7 5 3 2 5 6 4 3 3 4 4 3 4 2 1 2 3 2 3 3 3 2 3 4 4 2 1 6 6 6 3 1 5 1 6 7 3
26 25 21 18 15 12 8 6 6 9 7 5 2 3 5 5 6 6 5 3 2 2 4 3 3 2 3 1 1 2 2 2 1 1 1 5 4 3 2 1 6 2 1 2 3 3 5
27 25 22 19 16 13 8 7 8 9 10 5 5 3 6 8 4 2 7 4 5 1 5 3 3 2 3 4 1 1 0 1 1 3 3 1 3 3 1 2 1 4 7 1 2 3 4
Wind_Direction
53 47 35 32 23 17 16 12 8 4 2 1 1 358 356 353 350 347 345 340 335 334 335 331 333 341 355 57 61 307 330 334 342 355 19 25 51 3 349 334 347 164 307 322 338 280 242
42 40 34 28 21 17 14 13 10 4 359 358 359 357 355 352 347 344 341 338 333 330 329 325 333 333 76 109 298 314 338 350 9 33 19 41 69 358 325 304 46 320 297 279 279 252 224
60 45 28 19 18 13 11 10 8 4 1 360 356 353 351 348 344 339 336 337 337 328 325 330 338 336 57 131 326 328 324 309 349 37 61 36 19 72 349 343 336 328 320 323 263 211 193
60 52 34 17 13 8 8 6 4 2 360 358 355 352 348 342 338 332 330 335 335 320 319 330 338 7 69 307 297 338 346 295 10 28 106 264 44 106 119 315 8 358 45 357 310 125 1
54 37 25 13 6 4 4 3 2 1 357 355 352 349 343 339 335 329 322 313 302 300 285 300 39 101 79 320 13 322 9 7 314 319 338 336 54 85 23 81 16 7 252 239 313 130 105
59 33 14 8 4 2 359 358 358 358 356 354 350 345 342 337 333 329 323 302 294 326 222 222 285 53 351 352 330 337 305 337 355 322 20 51 50 75 36 69 226 239 305 278 259 280 136
91 9 9 4 358 358 358 356 354 354 355 351 348 343 339 338 335 332 347 31 21 1 39 103 260 137 60 325 37 3 351 345 354 38 146 5 85 190 208 199 207 225 214 250 242 237 188
145 68 3 359 359 355 354 354 352 352 352 350 346 342 339 337 337 334 52 71 60 267 48 1 58 54 20 40 15 349 14 26 23 117 105 22 254 223 214 133 257 228 244 261 286 14 151
175 181 28 358 356 353 351 351 350 350 350 349 345 341 338 336 328 35 76 75 327 19 98 2 350 85 280 23 49 322 13 316 40 48 16 181 220 192 167 232 252 236 216 251 240 331 306
187 196 303 353 355 351 350 347 346 346 347 346 344 339 337 331 61 308 44 302 359 150 75 283 176 312 73 113 17 249 8 62 12 30 324 246 306 309 9 256 146 279 151 170 273 45 218
196 201 231 330 340 342 342 344 343 343 345 347 345 340 340 20 179 54 306 321 353 58 26 235 231 217 139 162 143 327 15 58 118 263 86 253 175 15 311 243 156 238 351 290 226 222 94
202 200 207 283 326 331 336 337 339 339 341 344 344 344 342 20 49 306 304 6 53 45 265 204 85 236 1 150 237 45 30 31 54 331 336 254 309 281 230 281 278 310 335 329 42 103 293
201 205 204 234 310 325 331 333 335 337 338 339 339 341 347 74 216 316 19 42 37 128 166 188 188 96 353 184 151 69 33 16 39 42 354 334 339 320 355 319 22 63 46 330 334 359 235
204 204 203 224 285 308 320 327 332 337 337 334 329 328 324 136 287 81 59 51 176 223 196 196 183 228 216 175 252 51 101 102 33 70 119 138 312 4 350 100 228 345 160 167 256 232 264
197 200 201 216 267 298 311 321 329 335 339 334 327 13 34 291 137 78 79 71 219 201 155 87 354 190 258 254 187 82 28 160 105 41 161 167 270 319 32 351 76 21 173 147 323 255 317
201 197 202 208 234 292 308 317 326 332 341 350 57 47 296 315 90 63 81 232 219 48 29 139 213 162 229 202 187 173 185 202 154 113 180 194 299 3 306 75 39 117 77 67 35 254 241
195 198 199 206 225 284 306 314 325 331 335 360 45 49 287 69 70 50 173 216 167 119 133 166 202 207 210 195 184 217 173 339 135 167 31 65 118 284 319 32 44 341 60 51 255 180 235
191 196 197 199 205 272 304 313 323 332 332 56 105 20 304 39 63 21 166 332 65 142 5 122 111 160 191 169 204 197 202 29 85 80 144 15 140 261 258 311 8 102 113 112 153 245 273
183 190 190 196 201 228 282 308 324 327 342 121 135 196 330 97 176 195 232 60 66 82 1 346 141 12 309 180 202 124 128 88 77 81 139 165 221 332 350 299 18 73 75 112 160 131 204
179 181 185 188 203 225 278 308 323 320 254 100 96 40 330 47 80 140 161 202 176 50 94 46 123 25 133 197 35 163 142 193 123 122 133 91 194 209 220 78 136 262 204 228 185 156 251
177 173 172 177 187 220 288 319 329 316 189 101 62 234 186 211 245 166 152 137 145 189 117 69 341 237 194 200 175 196 137 136 36 166 120 139 217 232 275 274 258 248 253 253 246 247 214
170 168 167 162 164 237 289 298 334 265 156 98 143 145 13 112 61 117 157 212 168 155 151 210 207 169 199 217 297 189 127 174 192 158 155 168 253 72 264 259 254 278 268 268 277 296 256
168 163 168 165 171 198 224 257 308 215 178 125 188 5 111 342 103 113 222 158 179 130 36 39 169 122 125 97 45 81 62 76 151 161 177 154 179 112 263 336 335 287 260 327 320 70 326
164 164 169 171 170 194 211 214 272 223 188 128 180 115 109 178 118 181 125 93 126 106 136 61 68 100 74 1 272 103 46 278 217 223 177 153 150 161 255 340 245 269 131 138 128 91 323
165 166 168 168 172 194 178 187 210 198 173 105 166 129 126 108 119 90 98 111 78 55 70 64 42 128 136 67 67 331 352 351 262 216 199 187 132 228 212 197 309 270 330 80 102 276 246
164 164 165 161 168 189 202 125 172 130 140 97 76 79 97 120 312 16 111 125 130 108 55 60 41 61 74 80 168 221 230 225 248 320 134 109 96 142 122 182 256 221 279 28 116 282 270
162 158 159 162 165 159 148 130 117 174 134 101 72 30 92 101 7 3 114 166 116 106 111 136 145 55 53 104 218 218 254 218 223 187 196 152 162 202 232 251 270 202 317 335 76 253 305
160 153 160 162 150 146 147 131 133 141 132 101 112 9 104 93 33 20 45 61 71 99 139 163 87 34 69 110 210 245 167 248 110 7 245 186 182 203 76 24 273 339 82 210 241 286 307
154 153 154 155 147 133 134 148 132 129 126 108 86 30 68 83 135 90 95 35 347 275 126 38 120 107 154 89 247 71 235 36 100 247 357 260 185 165 171 218 74 20 101 348 289 291 301